Location: Boćki
(52.6512°N, 23.0459°E)
Time: 06:26:03
(UTC+02:00)

ISS - Visible Passes

Search period start: 20 September 2018 00:00
Search period end: 30 September 2018 00:00
Orbit: 402 x 408 km, 51.6° (Epoch: 20 September)

Date Brightness Start Highest point End Pass type
(mag) Time Alt. Az. Time Alt. Az. Time Alt. Az.
22 Sep -1.2 20:28:19 10° SSW 20:28:34 11° SSW 20:28:34 11° SSW visible
23 Sep -1.9 19:37:08 10° S 19:39:11 15° SE 19:39:12 15° SE visible
24 Sep -2.6 20:20:09 10° SW 20:22:20 30° SSW 20:22:20 30° SSW visible
25 Sep -2.6 19:28:31 10° SSW 19:31:19 26° SSE 19:32:36 20° ESE visible
25 Sep -1.4 21:04:13 10° WSW 21:05:17 19° WSW 21:05:17 19° WSW visible
26 Sep -3.6 20:12:17 10° WSW 20:15:26 53° S 20:15:26 53° S visible
27 Sep -3.2 19:20:24 10° SW 19:23:31 41° SSE 19:25:28 19° E visible
27 Sep -1.8 20:56:33 10° W 20:58:09 26° W 20:58:09 26° W visible
28 Sep -3.9 20:04:31 10° WSW 20:07:48 70° S 20:08:07 63° SE visible
29 Sep -3.6 19:12:31 10° WSW 19:15:46 59° SSE 19:18:02 18° E visible
29 Sep -2.0 20:48:52 10° W 20:50:42 30° W 20:50:42 30° W visible
